Tracking 22454 objects as of 5-Mar-2021
HD Live streaming from Space Station
objects crossing your sky now

FREGAT DEB

Track FREGAT DEB now!
10-day predictions


NORAD ID: 46242
Int'l Code: 2011-037KC
Perigee: 673.5 km
Apogee: 3,408.6 km
Inclination: 51.5 °
Period: 128.0 minutes
Semi major axis: 8412 km
RCS: Unknown
Launch date: July 18, 2011
Source: Commonwealth of Independent States (former USSR) (CIS)
Launch site: TYURATAM MISSILE AND SPACE COMPLEX (TTMTR)

Note: This is SATELLITE DEBRIS
aabbcc
Your satellite tracking list
Your tracking list is empty




NASA's NSSDC Master Catalog

Two Line Element Set (TLE):
1 46242U 11037KC  21045.37264173  .00031425  00000-0  39996-1 0  9997
2 46242  51.4577 119.2564 1625678 141.7167 231.1120 11.25253678 20045
Source of the keplerian elements: AFSPC